Location: Newark
(50.4348°N, 30.5552°E)
Time: 02:04:19
(UTC+00:00)

Tiros 1 despin weight - Pass Details

Date: 26 January 2020
Orbit: 594 x 642 km, 48.2° (Epoch: 25 February)

Event Time Altitude Azimuth Distance (km) Brightness Sun altitude
Rises 08:18:33 0° 203° (SSW) 2,845 ? 16.5°
Reaches altitude 10° 08:21:28 10° 183° (S) 1,955 ? 16.7°
Maximum altitude 08:24:25 17° 142° (SE) 1,545 ? 16.9°
Drops below altitude 10° 08:27:23 10° 101° (E) 1,982 ? 17.1°
Sets 08:30:22 0° 82° (E) 2,902 ? 17.3°
